GFSNE_850_spd_111.txt.gz
Wind_Speed
49 47 50 36 33 27 24 27 20 17 22 21 19 24 27 24 23 23 24 24 21 20 22 23 23 24 24 25 26 28 28 29 31 32 34 35 36 36
49 51 52 50 42 34 29 22 24 19 17 18 19 14 11 14 16 18 19 19 18 17 18 19 22 24 26 27 30 31 31 32 33 36 36 38 37 38
50 51 50 44 45 37 30 30 27 24 22 19 10 14 17 17 12 11 13 13 21 22 20 20 22 25 28 30 33 34 35 35 37 39 40 40 40 42
46 49 49 46 47 42 37 31 35 28 22 21 19 16 18 18 21 28 25 20 22 24 24 27 28 29 31 33 35 35 36 37 39 39 39 41 43 45
46 40 41 43 45 40 37 28 26 31 33 32 34 27 28 27 30 25 25 31 31 34 35 37 40 41 40 37 38 39 38 39 41 41 41 42 39 36
42 46 44 42 44 44 40 38 36 35 33 31 31 32 31 30 25 27 27 29 32 31 35 43 40 48 53 50 45 46 42 43 48 37 34 32 29 27
34 40 40 41 40 42 43 40 34 32 31 29 30 31 31 29 31 29 27 29 35 33 34 32 32 35 37 38 37 38 36 32 28 25 24 26 26 27
28 31 34 38 45 42 42 45 43 35 32 32 34 34 35 31 28 30 28 30 31 33 29 34 36 34 35 32 29 23 21 19 16 19 20 22 23 23
16 22 30 33 34 35 37 44 36 35 38 39 39 41 41 40 38 38 38 39 39 39 37 34 33 31 31 27 21 17 16 15 15 17 18 20 22 24
13 17 21 25 25 29 35 40 41 38 37 38 39 42 43 43 43 44 38 39 38 34 31 28 27 24 22 16 14 13 13 12 14 16 19 20 21 21
12 18 22 24 24 26 34 39 40 42 41 42 44 45 46 46 46 45 41 35 29 25 24 23 21 16 12 11 10 11 10 12 14 16 16 17 18 18
20 26 26 24 26 26 32 37 40 43 44 43 43 44 42 39 37 32 29 26 26 19 16 14 11 9 7 9 7 8 7 10 12 13 13 15 16 18
27 28 22 26 29 27 28 34 41 40 37 31 26 21 18 17 16 14 12 12 12 10 11 11 11 10 7 3 3 5 7 10 11 11 11 14 15 16
26 28 31 35 36 31 30 23 24 23 22 18 14 9 6 4 5 5 6 6 7 7 10 9 6 3 4 4 0 4 8 9 10 10 14 14 12 11
24 26 24 21 18 17 15 14 13 13 12 10 10 10 9 9 9 9 8 7 6 5 5 5 6 6 5 3 1 4 10 11 7 13 14 13 11 11
11 9 6 6 6 12 15 15 14 14 13 13 14 15 14 12 10 8 7 8 7 7 6 5 5 3 3 3 3 5 9 9 11 12 14 11 10 8
15 16 18 20 21 22 22 20 18 16 15 14 12 12 11 9 10 10 9 8 7 6 5 3 2 2 2 3 4 5 8 8 11 12 12 11 7 6
23 24 24 24 22 21 19 17 15 13 11 11 11 11 11 10 9 9 8 7 6 5 3 3 3 4 5 9 8 7 8 10 11 10 10 9 4 3
23 22 21 19 18 15 14 13 13 13 12 12 10 10 9 9 8 7 7 6 5 4 3 2 3 4 3 4 8 11 13 12 13 11 9 8 8 5
19 18 17 15 14 13 12 13 12 12 11 11 10 9 8 7 7 6 6 6 4 3 3 3 4 5 5 7 10 11 15 18 14 13 12 9 5 6
15 15 15 14 13 12 12 11 11 10 10 9 8 8 8 6 5 4 3 3 4 2 2 3 7 8 9 9 10 10 13 14 18 13 11 10 5 5
14 15 14 13 12 11 11 11 10 9 8 7 7 6 6 5 4 3 3 3 1 1 3 5 7 7 7 9 12 14 13 14 11 11 5 8 4 4
14 13 13 12 10 10 9 9 8 7 7 6 5 4 4 3 2 1 0 1 3 2 5 5 7 7 8 9 13 13 15 13 13 9 4 8 2 5

GFSNE_850_spd_114.txt.gz
Wind_Speed
33 41 49 47 42 34 33 30 31 24 27 27 24 25 23 23 26 25 25 23 25 24 24 24 24 25 26 27 27 28 29 29 29 30 31 31 33 34
33 39 39 44 42 32 32 26 28 27 26 27 29 27 28 28 27 26 20 20 22 23 25 24 25 24 24 25 26 27 28 29 31 32 33 34 35 37
31 40 40 37 37 33 37 26 24 22 20 19 20 18 18 21 21 17 19 18 17 17 17 19 19 20 22 25 26 27 29 30 31 32 34 36 37 37
29 40 43 43 45 38 34 36 33 22 19 17 24 19 21 21 18 17 19 23 25 22 15 18 23 25 25 27 29 29 31 31 31 35 38 37 37 37
30 34 41 46 49 49 47 40 39 34 27 24 17 16 15 17 18 19 23 23 24 28 34 32 32 33 35 35 35 39 47 46 44 42 42 39 37 32
30 35 40 42 45 42 42 40 37 34 26 35 31 27 24 21 23 25 26 26 26 30 25 28 32 33 36 37 38 35 31 34 39 40 33 26 23 22
28 36 33 36 37 38 40 38 40 33 25 24 29 31 33 36 32 30 27 25 25 25 27 28 31 31 31 27 30 31 34 37 38 31 23 20 19 19
17 21 25 29 33 33 30 36 41 39 34 34 36 37 35 31 28 28 25 23 25 27 30 30 29 30 30 28 30 30 31 25 19 16 16 17 18 17
12 14 17 26 25 26 26 28 34 35 34 37 31 30 29 30 30 32 33 31 32 34 32 32 33 30 29 27 23 18 14 13 14 15 15 14 14 16
9 9 11 13 16 21 23 27 28 29 31 27 29 30 33 33 34 34 35 34 34 34 31 29 29 27 24 20 15 12 13 12 12 11 10 13 15 15
8 9 10 10 9 13 17 22 29 30 33 34 36 36 35 34 38 38 35 31 28 25 23 22 21 20 16 13 11 11 11 10 8 11 13 14 13 12
12 10 11 12 13 13 16 19 24 29 32 34 35 35 35 35 38 36 31 26 23 20 18 17 15 12 7 10 8 8 7 8 9 10 10 11 12 13
14 15 14 16 20 22 22 22 25 31 34 33 28 23 19 16 14 13 11 12 14 15 12 12 11 12 10 5 5 2 4 5 7 7 9 11 13 12
19 20 22 23 21 18 22 24 27 27 24 20 15 12 9 5 4 3 3 4 5 6 7 8 8 10 8 5 3 2 4 5 7 7 11 11 10 6
19 18 17 15 13 12 11 14 17 15 15 14 10 8 6 6 6 6 7 7 7 8 8 6 6 7 7 6 5 2 4 5 4 11 11 9 5 5
12 12 8 7 7 11 14 14 13 12 11 10 11 11 11 10 10 10 9 9 8 9 8 8 6 5 6 5 3 3 5 5 9 10 10 5 3 4
17 17 20 20 21 20 19 18 16 15 14 13 12 12 11 11 11 10 10 10 9 9 8 7 6 5 4 3 1 3 6 9 9 9 8 7 2 1
22 24 24 23 23 22 21 21 17 15 14 12 12 12 13 12 12 11 10 9 9 7 6 5 5 5 3 1 4 7 10 12 10 9 8 9 4 7
22 24 23 22 21 19 18 17 16 15 14 13 12 11 11 12 11 11 10 9 8 6 4 2 2 3 6 5 8 10 10 11 12 11 12 10 11 11
24 23 21 19 17 17 17 17 16 15 13 12 12 12 10 10 10 10 11 9 8 7 5 3 3 2 3 5 6 5 11 16 15 13 13 10 9 8
19 19 17 15 14 13 12 12 12 12 11 10 10 10 10 9 9 8 8 7 6 6 3 4 5 4 4 5 7 10 10 9 15 14 11 10 6 10
16 15 14 14 16 15 14 12 12 10 10 10 9 9 8 7 7 6 6 5 4 4 4 2 4 6 6 6 10 14 11 13 7 11 8 7 10 6
14 14 14 13 12 11 10 9 9 9 9 8 7 7 7 6 4 4 4 3 1 3 4 2 1 2 5 6 11 14 15 9 12 16 6 5 7 8

GFSNE_850_spd_117.txt.gz
Wind_Speed
23 30 30 42 37 40 44 48 39 23 32 28 22 29 23 22 25 23 22 20 21 20 20 20 21 23 25 27 28 28 29 29 28 29 28 28 28 29
26 26 32 36 35 37 37 36 37 33 25 26 23 27 30 29 26 25 23 21 20 21 23 23 24 23 27 29 29 28 28 27 26 27 28 29 30 30
25 25 27 28 34 37 32 33 38 35 26 26 28 27 24 27 27 28 26 24 26 24 23 25 21 24 25 23 23 23 24 26 26 26 28 29 29 31
26 25 27 26 36 39 35 35 34 31 26 23 29 25 25 25 25 25 23 23 19 16 13 13 18 27 21 22 22 23 26 27 28 31 34 39 41 39
25 24 26 29 33 32 38 34 35 29 22 20 24 29 27 27 24 23 23 23 20 19 21 21 24 26 32 31 28 30 30 31 30 27 27 30 30 30
23 25 27 33 33 35 37 39 40 34 32 29 18 24 28 26 24 26 23 18 21 21 26 27 27 21 25 28 30 33 34 31 28 28 30 28 26 20
20 23 23 28 30 38 40 42 40 37 40 36 29 25 24 23 22 19 20 24 27 27 29 27 25 25 23 23 25 28 29 29 29 23 20 16 15 17
20 23 25 30 28 28 34 39 43 40 46 40 37 33 38 32 29 30 27 26 26 30 30 29 26 24 26 26 27 27 25 21 13 12 13 14 15 15
17 17 18 20 21 28 32 34 27 29 33 40 33 28 28 31 33 33 31 29 30 31 27 29 29 27 27 25 24 21 15 12 13 14 14 14 12 10
15 14 15 15 17 18 23 30 29 27 29 25 27 27 27 28 26 25 30 31 34 30 27 27 28 27 24 20 18 15 12 13 14 12 11 7 6 10
15 14 12 14 14 15 16 20 20 21 23 25 27 28 26 25 27 26 30 31 30 28 27 26 23 21 17 15 14 14 13 11 10 8 8 8 8 9
16 14 14 14 14 15 16 18 19 20 21 22 23 25 26 29 33 33 31 30 26 23 21 20 18 17 12 14 14 11 8 8 3 5 8 8 8 7
17 16 15 13 14 14 13 14 17 19 23 24 25 25 24 23 23 20 17 15 16 17 14 17 16 17 13 10 13 9 4 2 3 5 5 7 7 6
18 18 18 16 16 17 18 22 23 25 26 23 20 16 15 13 10 8 8 9 10 10 9 9 10 13 14 13 11 8 5 3 5 5 6 7 6 3
21 20 18 17 18 18 18 20 22 22 22 19 16 12 10 8 7 7 6 7 8 9 9 7 8 10 10 8 9 9 5 4 5 6 6 6 3 4
17 16 12 12 12 12 15 15 14 15 15 14 14 13 12 11 11 10 10 11 10 12 12 11 9 7 7 8 6 5 2 3 6 8 8 6 5 7
17 17 17 20 20 19 19 18 17 16 14 14 15 16 16 15 14 13 11 11 11 12 12 11 11 10 8 6 3 1 3 5 7 8 9 7 8 6
22 23 24 23 24 23 22 22 20 18 18 17 17 16 16 15 14 13 11 10 10 12 10 10 9 9 8 5 3 3 6 8 8 8 9 10 7 13
26 27 26 24 24 23 22 21 21 18 16 15 15 15 15 14 12 12 11 9 10 9 8 7 6 5 6 6 5 7 7 8 9 7 8 9 10 10
27 28 27 25 23 21 19 18 17 16 15 15 15 14 13 12 12 11 11 10 9 6 3 3 3 5 5 6 6 6 9 10 9 9 9 7 10 10
23 23 22 20 19 17 15 15 15 15 14 12 12 11 11 10 12 12 11 10 9 7 5 2 1 2 2 4 5 8 8 7 11 12 11 9 7 4
18 19 19 18 17 16 14 13 13 12 12 11 11 10 10 9 9 9 8 8 9 8 6 4 3 2 1 3 6 11 13 9 7 8 8 11 9 7
17 17 19 17 15 14 12 11 11 11 10 9 8 7 6 6 6 6 7 7 7 5 4 5 7 7 5 6 9 12 14 10 11 12 9 12 14 10

GFSNE_850_spd_120.txt.gz
Wind_Speed
33 31 31 32 31 32 36 41 37 18 30 34 32 32 30 29 29 24 23 20 20 18 16 15 15 16 18 20 22 22 29 29 28 28 29 29 28 26
32 30 27 29 32 33 40 41 39 35 30 36 32 29 27 28 28 29 26 22 21 20 20 19 19 20 21 23 24 23 31 32 30 29 27 26 26 27
30 28 30 29 31 31 38 39 40 38 28 33 25 28 20 30 24 27 31 29 25 24 23 21 21 22 22 21 28 26 28 27 26 25 25 25 26 28
31 30 31 27 29 32 32 39 42 45 36 30 29 25 21 26 31 29 24 27 28 25 23 21 22 22 19 23 23 29 25 24 24 26 26 29 30 30
31 30 28 29 27 29 29 39 36 36 37 33 28 28 29 26 25 25 24 25 23 23 19 17 18 23 24 24 28 32 32 31 29 30 32 33 33 31
29 28 27 26 29 28 31 36 33 37 33 33 33 30 32 32 31 29 29 31 29 26 25 23 21 25 26 30 32 30 31 29 28 28 29 32 31 27
26 25 27 25 23 28 31 34 33 37 35 29 29 35 37 35 35 33 30 28 26 23 21 21 26 27 28 31 31 27 26 26 28 28 28 25 21 19
28 25 22 21 21 26 25 28 30 37 37 39 33 34 33 34 36 32 29 22 20 23 25 27 28 28 29 28 26 26 27 28 26 21 16 16 17 18
28 25 22 21 19 26 33 30 35 36 42 43 42 40 36 30 28 26 24 27 25 28 26 28 29 31 28 27 27 26 24 19 13 13 15 16 15 13
22 21 21 20 22 23 29 32 33 34 40 41 37 40 40 37 37 33 31 29 29 28 29 30 32 31 28 25 24 21 16 14 13 14 13 12 11 11
19 19 18 18 20 19 21 28 33 24 25 29 30 31 30 28 29 29 28 29 31 29 30 30 30 29 25 22 20 17 14 12 13 11 11 9 6 9
21 20 19 19 19 20 20 20 21 24 26 25 22 23 23 24 24 23 26 29 30 26 27 27 25 24 18 20 19 16 12 10 10 9 6 6 7 7
23 22 20 19 19 18 18 19 20 22 22 21 21 22 22 23 25 25 26 24 25 26 20 22 22 23 18 12 19 14 11 9 6 5 4 5 7 8
24 23 23 23 21 20 19 20 20 20 23 22 21 20 20 20 19 17 16 16 16 15 13 16 17 20 19 14 14 15 10 7 6 6 6 7 7 9
24 23 21 22 23 23 24 24 25 24 24 22 20 18 15 12 11 10 9 9 10 10 11 12 10 14 13 12 12 13 11 9 7 7 8 8 7 9
26 24 23 22 23 24 25 23 21 21 21 19 17 15 14 12 11 9 9 10 10 13 12 11 11 10 11 9 9 10 8 4 5 8 8 8 9 10
24 20 19 18 17 17 17 17 17 18 17 16 16 16 15 14 13 13 12 12 12 14 14 13 12 11 10 8 8 6 5 5 6 8 9 9 10 12
20 21 24 24 23 22 19 20 19 18 17 16 16 16 16 15 15 15 13 12 12 14 13 13 11 11 11 8 7 5 5 6 7 9 11 11 9 13
22 24 22 21 23 21 20 19 20 19 18 18 18 18 16 15 14 15 14 12 13 12 12 10 10 8 7 7 6 5 6 8 8 9 11 12 14 10
24 23 23 22 22 22 21 21 21 20 18 17 16 16 15 14 14 14 13 11 11 11 9 8 7 8 7 6 7 7 8 9 10 11 11 11 13 13
24 24 23 21 21 20 19 18 17 17 16 16 15 15 13 11 12 11 10 9 7 6 5 5 5 6 5 6 6 7 6 8 13 14 13 14 12 11
21 20 19 18 18 17 17 16 16 15 15 14 13 12 12 10 9 9 9 8 6 4 3 2 3 3 4 6 7 9 11 11 10 11 12 13 16 14
16 16 16 16 15 14 14 14 14 14 12 11 10 10 10 10 9 8 7 6 6 6 5 6 6 6 7 8 10 11 13 15 14 14 11 13 20 21